When you browse on this site, cookies collect data to enhance your experience and personalize the content and advertising you see.
Visit our Privacy Policy to learn more. By continuing to use the site, you agree to this use of cookies and data.
  • Em Portugal
  • Lista de países
  • Para 7 dias
  • Temperatura da água
  • Mapa do tempo
  • Widgets de tempo
  • user-avatar
    Iniciar Sessão

    Previsão horária em Hobart

    Hoje, 22 Setembro, Domingo

    Tempo Temperatura Precipitação Vento Pressão Humidade
    00:00 +7°C° 0 mm 5 m/s 742 mmHg 76%
    01:00 +6°C° 0 mm 5 m/s 744 mmHg 76%
    02:00 +6°C° 0 mm 4 m/s 744 mmHg 79%
    03:00 +5°C° 0 mm 4 m/s 745 mmHg 82%
    04:00 +5°C° 0 mm 2 m/s 745 mmHg 89%
    05:00 +5°C° 0 mm 2 m/s 745 mmHg 87%
    06:00 +5°C° 0 mm 2 m/s 746 mmHg 86%
    07:00 +5°C° 0 mm 2 m/s 746 mmHg 85%
    08:00 +7°C° 0.1 mm 3 m/s 747 mmHg 76%
    09:00 +8°C° 0.1 mm 3 m/s 748 mmHg 70%
    10:00 +8°C° 0 mm 4 m/s 748 mmHg 67%
    11:00 +10°C° 0.1 mm 4 m/s 748 mmHg 60%
    12:00 +11°C° 0.1 mm 4 m/s 748 mmHg 53%
    13:00 +12°C° 0.1 mm 4 m/s 748 mmHg 46%
    14:00 +12°C° 0.1 mm 4 m/s 748 mmHg 49%
    15:00 +11°C° 0.1 mm 4 m/s 748 mmHg 51%
    16:00 +11°C° 0.1 mm 4 m/s 748 mmHg 54%
    17:00 +8°C° 0 mm 4 m/s 748 mmHg 62%
    18:00 +7°C° 0 mm 3 m/s 749 mmHg 70%
    19:00 +6°C° 0 mm 2 m/s 749 mmHg 78%
    20:00 +5°C° 0 mm 2 m/s 749 mmHg 80%
    21:00 +5°C° 0 mm 2 m/s 750 mmHg 81%
    22:00 +4°C° 0 mm 2 m/s 750 mmHg 83%
    23:00 +4°C° 0 mm 2 m/s 750 mmHg 85%

    Amanhã, 23 Setembro, Segunda-feira

    Tempo Temperatura Precipitação Vento Pressão Humidade
    00:00 +4°C° 0 mm 2 m/s 750 mmHg 88%
    01:00 +3°C° 0 mm 2 m/s 750 mmHg 90%
    02:00 +3°C° 0 mm 2 m/s 749 mmHg 90%
    03:00 +3°C° 0 mm 2 m/s 749 mmHg 90%
    04:00 +2°C° 0 mm 2 m/s 749 mmHg 91%
    05:00 +3°C° 0 mm 2 m/s 749 mmHg 87%
    06:00 +4°C° 0 mm 2 m/s 749 mmHg 84%
    07:00 +4°C° 0 mm 2 m/s 749 mmHg 81%
    08:00 +7°C° 0 mm 2 m/s 749 mmHg 72%
    09:00 +9°C° 0 mm 2 m/s 749 mmHg 63%
    10:00 +13°C° 0 mm 2 m/s 749 mmHg 54%
    11:00 +13°C° 0.2 mm 2 m/s 749 mmHg 56%
    12:00 +13°C° 0.2 mm 2 m/s 749 mmHg 58%
    13:00 +13°C° 0.2 mm 2 m/s 749 mmHg 60%
    14:00 +13°C° 0.3 mm 2 m/s 749 mmHg 62%
    15:00 +13°C° 0.3 mm 2 m/s 749 mmHg 64%
    16:00 +12°C° 0.3 mm 2 m/s 749 mmHg 67%
    17:00 +9°C° 0.1 mm 2 m/s 749 mmHg 73%
    18:00 +8°C° 0.1 mm 2 m/s 750 mmHg 79%
    19:00 +7°C° 0.1 mm 1 m/s 750 mmHg 85%
    20:00 +5°C° 0 mm 2 m/s 750 mmHg 87%
    21:00 +4°C° 0 mm 2 m/s 750 mmHg 89%
    22:00 +3°C° 0 mm 3 m/s 751 mmHg 91%
    23:00 +3°C° 0 mm 3 m/s 750 mmHg 91%

    Depois de amanhã, 24 Setembro, Terça-feira

    Tempo Temperatura Precipitação Vento Pressão Humidade
    00:00 +3°C° 0 mm 3 m/s 750 mmHg 90%
    01:00 +4°C° 0 mm 3 m/s 750 mmHg 90%
    02:00 +4°C° 0 mm 3 m/s 750 mmHg 89%
    03:00 +4°C° 0 mm 3 m/s 750 mmHg 88%
    04:00 +4°C° 0 mm 4 m/s 749 mmHg 88%
    05:00 +4°C° 0.1 mm 4 m/s 749 mmHg 87%
    06:00 +5°C° 0.1 mm 4 m/s 749 mmHg 87%
    07:00 +5°C° 0.1 mm 4 m/s 750 mmHg 87%
    08:00 +7°C° 0.1 mm 3 m/s 749 mmHg 86%
    09:00 +8°C° 0.1 mm 3 m/s 749 mmHg 86%
    10:00 +9°C° 0.1 mm 3 m/s 749 mmHg 85%
    11:00 +9°C° 0.2 mm 3 m/s 749 mmHg 85%
    12:00 +9°C° 0.2 mm 3 m/s 749 mmHg 85%
    13:00 +9°C° 0.2 mm 3 m/s 749 mmHg 85%
    14:00 +8°C° 0.1 mm 4 m/s 750 mmHg 77%
    15:00 +10°C° 0.1 mm 4 m/s 750 mmHg 69%
    16:00 +9°C° 0.1 mm 5 m/s 750 mmHg 61%
    17:00 +8°C° 0 mm 5 m/s 750 mmHg 66%
    18:00 +6°C° 0 mm 4 m/s 751 mmHg 72%
    19:00 +5°C° 0 mm 4 m/s 751 mmHg 78%
    20:00 +4°C° 0 mm 4 m/s 752 mmHg 81%
    21:00 +4°C° 0 mm 4 m/s 752 mmHg 83%
    22:00 +4°C° 0 mm 3 m/s 753 mmHg 85%
    23:00 +3°C° 0 mm 3 m/s 753 mmHg 85%

    25 Setembro, Quarta-feira

    Tempo Temperatura Precipitação Vento Pressão Humidade
    00:00 +3°C° 0 mm 3 m/s 753 mmHg 86%
    01:00 +3°C° 0 mm 3 m/s 753 mmHg 86%
    02:00 +3°C° 0 mm 3 m/s 753 mmHg 88%
    03:00 +2°C° 0 mm 3 m/s 753 mmHg 89%
    04:00 +2°C° 0 mm 3 m/s 753 mmHg 91%
    05:00 +2°C° 0 mm 3 m/s 754 mmHg 89%
    06:00 +4°C° 0 mm 2 m/s 754 mmHg 88%
    07:00 +4°C° 0 mm 2 m/s 754 mmHg 86%
    08:00 +6°C° 0 mm 2 m/s 754 mmHg 78%
    09:00 +8°C° 0 mm 2 m/s 754 mmHg 69%
    10:00 +10°C° 0 mm 2 m/s 755 mmHg 61%
    11:00 +12°C° 0 mm 2 m/s 754 mmHg 58%
    12:00 +13°C° 0 mm 2 m/s 754 mmHg 56%
    13:00 +14°C° 0 mm 2 m/s 754 mmHg 54%
    14:00 +14°C° 0 mm 2 m/s 753 mmHg 56%
    15:00 +14°C° 0 mm 2 m/s 753 mmHg 59%
    16:00 +13°C° 0 mm 2 m/s 752 mmHg 62%
    17:00 +12°C° 0 mm 2 m/s 753 mmHg 70%
    18:00 +10°C° 0 mm 2 m/s 753 mmHg 77%
    19:00 +8°C° 0 mm 2 m/s 753 mmHg 85%
    20:00 +8°C° 0 mm 2 m/s 753 mmHg 87%
    21:00 +7°C° 0 mm 2 m/s 753 mmHg 89%
    22:00 +7°C° 0 mm 2 m/s 753 mmHg 92%
    23:00 +7°C° 0 mm 2 m/s 753 mmHg 91%

    26 Setembro, Quinta-feira

    Tempo Temperatura Precipitação Vento Pressão Humidade
    00:00 +7°C° 0 mm 2 m/s 752 mmHg 90%
    01:00 +8°C° 0 mm 1 m/s 752 mmHg 90%
    02:00 +7°C° 0 mm 1 m/s 752 mmHg 90%
    03:00 +6°C° 0 mm 2 m/s 752 mmHg 90%
    04:00 +5°C° 0 mm 2 m/s 752 mmHg 91%
    05:00 +5°C° 0 mm 2 m/s 752 mmHg 89%
    06:00 +6°C° 0 mm 2 m/s 752 mmHg 88%
    07:00 +6°C° 0 mm 2 m/s 751 mmHg 86%
    08:00 +8°C° 0 mm 2 m/s 751 mmHg 78%
    09:00 +10°C° 0 mm 3 m/s 751 mmHg 70%
    10:00 +12°C° 0 mm 3 m/s 751 mmHg 63%
    11:00 +13°C° 0 mm 3 m/s 750 mmHg 59%
    12:00 +14°C° 0 mm 3 m/s 749 mmHg 55%
    13:00 +16°C° 0 mm 3 m/s 749 mmHg 51%
    14:00 +16°C° 0 mm 3 m/s 748 mmHg 52%
    15:00 +16°C° 0 mm 3 m/s 747 mmHg 53%
    16:00 +16°C° 0 mm 3 m/s 746 mmHg 54%
    17:00 +13°C° 0 mm 3 m/s 746 mmHg 61%
    18:00 +12°C° 0 mm 3 m/s 746 mmHg 67%
    19:00 +10°C° 0 mm 2 m/s 745 mmHg 74%
    20:00 +10°C° 0 mm 3 m/s 744 mmHg 74%
    21:00 +9°C° 0 mm 3 m/s 744 mmHg 75%
    22:00 +8°C° 0 mm 4 m/s 743 mmHg 75%
    23:00 +8°C° 0 mm 4 m/s 742 mmHg 74%

    27 Setembro, Sexta-feira

    Tempo Temperatura Precipitação Vento Pressão Humidade
    00:00 +8°C° 0 mm 4 m/s 742 mmHg 73%
    01:00 +10°C° 0 mm 4 m/s 741 mmHg 72%
    02:00 +8°C° 0.2 mm 4 m/s 741 mmHg 76%
    03:00 +7°C° 0.2 mm 4 m/s 741 mmHg 81%
    04:00 +7°C° 0.2 mm 4 m/s 742 mmHg 85%
    05:00 +6°C° 0 mm 4 m/s 742 mmHg 84%
    06:00 +6°C° 0 mm 4 m/s 743 mmHg 83%
    07:00 +5°C° 0 mm 4 m/s 744 mmHg 82%
    08:00 +6°C° 0 mm 4 m/s 744 mmHg 74%
    09:00 +7°C° 0 mm 5 m/s 745 mmHg 65%
    10:00 +8°C° 0 mm 6 m/s 745 mmHg 57%
    11:00 +9°C° 0 mm 5 m/s 745 mmHg 53%
    12:00 +10°C° 0 mm 5 m/s 746 mmHg 50%
    13:00 +12°C° 0 mm 5 m/s 746 mmHg 46%
    14:00 +12°C° 0 mm 5 m/s 746 mmHg 47%
    15:00 +12°C° 0 mm 5 m/s 746 mmHg 47%
    16:00 +11°C° 0 mm 4 m/s 746 mmHg 48%
    17:00 +10°C° 0 mm 4 m/s 746 mmHg 55%
    18:00 +8°C° 0 mm 3 m/s 747 mmHg 62%
    19:00 +5°C° 0 mm 3 m/s 748 mmHg 69%
    20:00 +6°C° 0 mm 2 m/s 748 mmHg 73%
    21:00 +5°C° 0 mm 2 m/s 748 mmHg 76%
    22:00 +5°C° 0 mm 2 m/s 748 mmHg 80%
    23:00 +4°C° 0 mm 2 m/s 748 mmHg 82%
    Mostrar mais